{"data":{"norad_id":59018,"intl_designator":"2024-036W","name":"STARLINK-31527","alt_names":[],"object_type":"PAYLOAD","status":"ACTIVE","operator":null,"country":"US","launch_date":"2024-02-23","launch_site_code":"AFWTR","launch_vehicle":null,"mission":null,"orbit_class":"UNKNOWN","rcs_meters":null,"size_class":null,"mass_kg":null,"dimensions":null,"purposes":["comms"],"wikipedia_slug":null,"has_3d_model":false,"image_url":null,"decayed_at":null,"tle_current":{"epoch":"2026-05-25T03:02:07.477152Z","epoch_age_seconds":67673,"freshness":"FRESH","line1":"1 59018U 24036W   26145.12647543  .00000162  00000+0  17614-4 0  9999","line2":"2 59018  53.1603  83.2595 0001186  91.5880 268.5257 15.30192760127023","mean_motion":15.3019276,"eccentricity":0.0001186,"inclination_deg":53.1603,"raan_deg":83.2595,"arg_perigee_deg":91.588,"mean_anomaly_deg":268.5257,"bstar":1.7614e-5,"rev_number":12702,"period_min":94.105790959304,"perigee_km":474.42387672028,"apogee_km":476.0494969588,"semimajor_km":6853.3736868395,"source":"CELESTRAK","updated_at":"2026-05-25T13:38:18.821530Z"}}}